User: anonymous   Login
Location: Colle Santa Colomba
(42.0333°N, 12.5667°E)
Time: 16:21:52
(UTC+00:00)
Language:

ARGOS - Orbit

View from above orbital plane
View from above orbital plane
View from above satellite
View from above satellite

Ground track
Ground track

The orbit data is extracted from the following two-line orbital elements,

1 25634U 99008A   22024.89296760 -.00000007  00000-0  16151-4 0  9999
2 25634  98.4032  46.4860 0010555  22.8399 337.3245 14.19414560186675
Epoch (UTC): 24 January 2022 21:25:52
Eccentricity: 0.0010555
inclination: 98.4032°
perigee height: 820 km
apogee height: 835 km
right ascension of ascending node: 46.4860°
argument of perigee: 22.8399°
revolutions per day: 14.19414560
mean anomaly at epoch: 337.3245°
orbit number at epoch: 18667

The dashed part of the orbit path shows where the satellite is in the earth's shadow,  

DLR